OBJECT J, 44887

Orbit data source: Space-Track

You're viewing an Uncataloged Satellite

Recently launched and/or uncataloged satellites may have evolving metadata. Metadata may include but not limited to: Owner, Maufacturer, Bus, Motor, and Mission.

OBJECT J, 44887 is a satellite in SSO that was launched on Fri, 20 Dec 2019 UTC launched from the Taiyaun Space Center, China (TSC). Unknown objects in Earth's orbit typically refer to objects detected orbiting the Earth but have not yet been identified or cataloged. These objects could be anything from previously untracked satellites, spent rocket stages, debris from satellite collisions, or even natural meteoroids temporarily captured by Earth's gravity.

Loading next visibility...
Identifier
44887, 2019-093J
Orbit
SSO
Country
Flag of TBDTBD
Related business
Manufacturer
SAST
Mission
Non-operational spacecraft
Bus & Motor
Unknown
Mass
~200 kg wet, ~200 kg dry
Launch date (UTC)
2019-12-20 (7 years ago)
Launch vehicle
Unknown
Launch site
Taiyaun Space Center, China (TSC)
Object type
Unknown
Shape & HBR
Cyl, 1.0 m
Radar Cross Section
7.858 m², Medium (>0.1 m² and < 1m²)

Expand to show TLE details & history
Last TLE update: 7 hours ago

TLE from 7 hours ago
0 OBJECT J
1 44887U 19093J   26208.60889241  .00001600  00000-0  16191-3 0  9997
2 44887  97.7922 292.5977 0011254 304.3362  55.6791 14.92349399358017
Epoch: 2026-07-27T14:36Z
TLE epoch observation values (Epoch: 2026-07-27T14:36:48.304Z)
Latitude
-0.00006°
Longitude
128.10642°
Altitude
589.237 km
Speed
7.568 km/s
True Right ascension
19h 30m 23s
True Declination
0° 00' 00"
Sunlit
Object was in full shadow at epoch
Visualization orbit readout
Latitude
Unknown
Longitude
Unknown
Altitude
Unknown
Speed
Unknown
Apparent Right ascension
Unknown
Apparent Declination
Unknown
Sunlit
N/A
Visualization observer readout
Local Sidereal Time
10:32:01
Azimuth
Unknown
Elevation
Unknown
Doppler factor
Unknown
Orbital elements
Apogee altitude
595.471 km
Perigee altitude
579.792 km
Semi-major axis
6,965.769 km
Eccentricity
0.00113
Inclination
97.7922°
RAAN
292.5977°
Arg. of periapsis
304.3362°
True anomaly
55.78569°
Mean anomaly
55.6791°
Eccentric anomaly
55.73239°
Mean motion
3.73327 °/min
Orbital period
96.43 mins
BSTAR
0.00016191
Loading maneuver chart data...
Computing Atmospheric mass density...
Loading historical data...
Loading historical data...
Loading historical data...
Loading historical data...
Loading historical data...
Loading historical data...
Loading historical data...

Documentation

Showing up to 5 results
|